Regional Weather Roundup
Issued by NWS Charleston, SC

Current Version | Previous Version | Text Only | Print | Product List | Glossary Off
Versions: 1 2 3 4 5 6 7 8 9 10 11 12 13 14 15 16 17 18 19 20 21 22 23 24 25 26 27 28 29 30 31 32 33 34 35 36 37 38 39 40 41 42 43 44 45 46 47 48 49 50

000
ASUS42 KCHS 010926
RWRCHS

REGIONAL WEATHER ROUNDUP
NATIONAL WEATHER SERVICE CHARLESTON SC
400 AM EST SUN FEB 01 2015

NOTE: "FAIR" INDICATES FEW OR NO CLOUDS BELOW 12,000 FEET WITH NO
SIGNIFICANT WEATHER AND/OR OBSTRUCTIONS TO VISIBILITY.

NOT ALL STATIONS ARE QUALITY CONTROLLED BY THE NATIONAL
WEATHER SERVICE. USE DATA WITH CAUTION...ESPECIALLY
DEWPOINT OBSERVATIONS.

SCZ027-030-031-034>040-042>050-011000-
...SOUTHEAST SOUTH CAROLINA...

CITY           SKY/WX    TMP DP  RH WIND       PRES   REMARKS
N CHARLESTON   CLOUDY    36  32  85 CALM      30.31S
WATERFRONT PRK   N/A     46 N/A N/A CALM        N/A
MOUNT PLEASANT FAIR      36  34  93 CALM      30.31S
PINOPOLIS        N/A     43  32  65 CALM      30.23S
MONCKS CORNER  FAIR      37  32  81 CALM      30.30F
SUMMERVILLE    NOT AVBL
BEAUFORT MCAS  CLOUDY    40  37  89 CALM      30.30S
BEAUFORT ARPT  FAIR      41  39  93 CALM      30.29F
HILTON HEAD IS MOCLDY    39  37  93 CALM      30.30S
WALTERBORO     PTSUNNY   36  36 100 CALM      30.30F
ALLENDALE      PTSUNNY   36  30  80 CALM      30.28F

...SOUTHERN MIDLANDS AND PEE DEE...

CITY           SKY/WX    TMP DP  RH WIND       PRES   REMARKS
GEORGETOWN     NOT AVBL
KINGSTREE      NOT AVBL
ORANGEBURG     PTCLDY    36  27  69 CALM      30.29F
BARNWELL       FAIR      36  30  80 CALM      30.29F
AIKEN          FAIR      37  27  65 CALM      30.30F
MANNING        FAIR      37  32  81 CALM      30.30F
COLUMBIA       CLOUDY    40  28  62 CALM      30.27F
SUMTER         CLOUDY    38  26  60 S2        30.27F
FLORENCE       CLOUDY    39  28  64 CALM      30.30F
MYRTLE BEACH   MOCLDY    37  30  75 CALM      30.33F
N MYRTLE BEACH PTCLDY    32  28  85 CALM      30.31S

$$

GAZ063-065-086>088-099>101-113>116-118-119-134>141-150-011000-
...SOUTHEAST GEORGIA...

CITY           SKY/WX    TMP DP  RH WIND       PRES   REMARKS
SAVANNAH ARPT  MOCLDY    39  36  89 CALM      30.29F
HUNTER AAF     MOCLDY    40  37  89 CALM      30.27S
FORT STEWART   MOCLDY    36  33  88 CALM      30.27S
STATESBORO     MOCLDY    36  34  95 CALM      30.27F
SYLVANIA       PTSUNNY   36  35  95 CALM      30.29S
CLAXTON        FAIR      36  34  93 CALM      30.27F

...CSRA...CENTRAL AND FAR SOUTHEAST GEORGIA...

CITY           SKY/WX    TMP DP  RH WIND       PRES   REMARKS
THOMSON        CLOUDY    42  32  66 SE3       30.30F
AUGUSTA-BUSH   CLOUDY    36  29  75 CALM      30.29F
AUGUSTA-DANIEL CLOUDY    44  23  43 S3        30.28F
SWAINSBORO     FAIR      41  28  60 E3        30.26F
VIDALIA        MOCLDY    39  36  87 E3        30.26F
EASTMAN        FAIR      34  34 100 CALM      30.27F
HAZLEHURST     FAIR      43  38  84 SE3       30.24F
ALMA           CLOUDY    40  36  86 E3        30.25F
WAYCROSS       MOCLDY    45  42  89 CALM      30.25F
JESUP          FAIR      41  37  87 CALM      30.26F
BAXLEY         FAIR      43  37  81 CALM      30.25F
BRUNSWICK      MOCLDY    37  36  93 CALM      30.27S
SAINT SIMONS   MOCLDY    49  46  90 E6        30.26F

$$

SCZ027-028-034-036>038-045-046-048>050-GAZ119-141-011000-
...LAKE AND SUPPLEMENTAL COASTAL OBSERVATIONS...

STATION/POSITION TIME  TEMP    WIND        PRES    WAVE   SWELL
                       AIR SEA DIR/SP/G            HT/PER HT/PER/DIR
                 (UTC) (F)     (DEG/KT/KT) (MB)    (FT/S) (FT/S/D)
UPR LAKE MARION  NOT AVBL
WINYAH BAY       0845   36     310/  2     1025.0S
LAKE MURRAY      0800   46     190/  9/ 10 1024.4F
ACE BASIN NERRS  NOT AVBL
FORT PULASKI     0900   49 52   40/  1/  1 1025.9F
SAPELO ISLAND    0900   41      80/  6     1025.0S

$$

ANZ835-935-AMZ111-154-330-350-352-354-370-450-454-472-011000-
...C-MAN AND BUOY OBSERVATIONS...

STATION/POSITION TIME  TEMP    WIND        PRES    WAVE   SWELL
                       AIR SEA DIR/SP/G            HT/PER HT/PER/DIR
                 (UTC) (F)     (DEG/KT/KT) (MB)    (FT/S) (FT/S/D)
BUOY 41004       0850   56 69  200/  2/  4 1025.7F   4/10   3/10
BUOY 41008       0850   55 53   90/  8/  8 1025.0F
FOLLY BEACH CMAN 0900   46     320/  3/  3 1026.8S
CAPERS NEARSHORE 0800   51     190/  4/  4   N/A
FRIPP NEARSHORE  0800   51      90/  4/  6 1025.1F


STATION/POSITION TIME  TEMP    WIND        PRES    WAVE   SWELL
                       AIR SEA DIR/SP/G            HT/PER HT/PER/DIR
                 (UTC) (F)     (DEG/KT/KT) (MB)    (FT/S) (FT/S/D)
5E ST. MARYS GA  0821      56                N/A     3/ 9
FRYING PAN BUOY  0850   51 63  250/  6/  8 1027.1F   2/12   2/100/12
BUOY 41025       0850   50 71  280/ 14/ 17 1025.6F   8/11   8/ 70/11
CAPE LOOKOUT NC  0900   46     270/  8/ 10 1026.2R
BUOY 41002       0850   56 70   20/  8/ 14 1026.3F   9/10   8/ 10/10
BUOY 41010       0820   64 73   90/ 10/ 14 1025.1S
ST AUGUSTINE FL  0900   52     330/  4/  4 1024.6S


$$


USA.gov is the U.S. government's official web portal to all federal, state and local government web resources and services.